Flag for United Kingdom Weather past 2 weeks in Northampton, England, United Kingdom

Now
43 °F

Quite cool.


Feels Like: 36 °F
Forecast: N/A
Wind: 13 mph from Northwest

Location: Wittering

Current Time: Dec 25, 2014 at 3:46:38 PM

Latest Report: Dec 25, 2014 at 2:50 PM


Visibility: N/A

Pressure: 30.36 "Hg

Humidity: 76%

Dew point: 36 °F

Location of NorthamptonLocation

Historic Weather in Northampton — Graph

°F

Northampton temperature yesterday

Maximum temperature yesterday: 52 °F (at 12:50 AM)
Minimum temperature yesterday: 37 °F (at 11:50 PM)
Average temperature yesterday: 44 °F

Past Weeks' High & Low Weather Summary

 TemperatureHumidityPressure
High57 °F (Dec 18, 11:50 AM)100% (Dec 11, 9:50 PM)30.39 "Hg (Dec 11, 9:50 PM)
Low30 °F (Dec 13, 5:50 AM)61% (Dec 24, 1:50 PM)29.12 "Hg (Dec 12, 4:50 AM)
Average45 °F85%29.84 "Hg
* Reported Dec 10 1:50 PM — Dec 25 1:50 PM, Northampton, Weather by CustomWeather, © 2014

Note: Actual official high and low records may vary slightly from our data, if they occured in-between our weather recording intervals... More about our weather records

Advertising

Northampton weather history for previous 24 hours

 ConditionsComfort  
Time TempWeatherWind HumidityBarometerVisibility
1:50 PM
Dec 25
45 °FQuite cool.14 mph76%30.36 "HgN/A
12:50 PM45 °FQuite cool.16 mph76%30.33 "HgN/A
11:50 AM43 °FQuite cool.16 mph81%30.33 "HgN/A
10:50 AM41 °FQuite cool.18 mph87%30.33 "HgN/A
9:50 AM39 °FChilly.14 mph87%30.30 "HgN/A
8:50 AM37 °FChilly.13 mph87%30.27 "HgN/A
7:50 AM37 °FChilly.13 mph87%30.27 "HgN/A
6:50 AM37 °FChilly.13 mph87%30.24 "HgN/A
5:50 AM37 °FChilly.12 mph87%30.21 "HgN/A
4:50 AM37 °FChilly.16 mph87%30.18 "HgN/A
3:50 AM37 °FChilly.17 mph93%30.18 "HgN/A
2:50 AM39 °FChilly.20 mph81%30.18 "HgN/A
1:50 AM37 °FChilly.18 mph87%30.15 "HgN/A
12:50 AM37 °FChilly.18 mph87%30.15 "HgN/A
11:50 PM
Dec 24
37 °FChilly.17 mph87%30.12 "HgN/A
10:50 PM39 °FChilly.16 mph81%30.12 "HgN/A
9:50 PM39 °FChilly.16 mph81%30.09 "HgN/A
8:50 PM39 °FChilly.18 mph81%30.09 "HgN/A
7:50 PM41 °FQuite cool.16 mph76%30.09 "HgN/A
6:50 PM41 °FQuite cool.17 mph76%30.07 "HgN/A
5:50 PM41 °FQuite cool.16 mph76%30.04 "HgN/A
4:50 PM41 °FPassing clouds.12 mph70%30.04 "HgN/A
3:50 PM43 °FQuite cool.14 mph66%30.04 "HgN/A
Weather by CustomWeather, © 2014

See weather overviewHow to use our weather pages